User: anonymous   Login
Location: Pulvis Stellarum Observatory
(41.6962°N, 71.4263°W)
Time: 21:37:50
(UTC-04:00)
Language:

Cosmos 1758 - Orbit

View from above orbital plane
View from above orbital plane
View from above satellite
View from above satellite

Ground track
Ground track

The orbit data is extracted from the following two-line orbital elements,

1 16791U 86046A   15153.13796180  .00000897  00000-0  64296-4 0  9993
2 16791 082.4718 038.3379 0018884 104.2803 256.0521 15.03030599573557
Epoch (UTC): 02 June 2015 03:18:39
Eccentricity: 0.0018884
inclination: 82.4718°
perigee height: 544 km
apogee height: 570 km
right ascension of ascending node: 38.3379°
argument of perigee: 104.2803°
revolutions per day: 15.03030599
mean anomaly at epoch: 256.0521°
orbit number at epoch: 57355

The dashed part of the orbit path shows where the satellite is in the earth's shadow,  

DLR